Year,Month,Day,Hour,Minute,Value (Times are PST for windspeed in km/hr)
2006,01,31,00,00,1.80
2006,01,31,00,01,2.60
2006,01,31,00,02,0.70
2006,01,31,00,03,1.20
2006,01,31,00,04,1.10
2006,01,31,00,05,1.70
2006,01,31,00,06,1.40
2006,01,31,00,07,0.50
2006,01,31,00,08,0.30
2006,01,31,00,09,0.00
2006,01,31,00,10,0.20
2006,01,31,00,11,0.80
2006,01,31,00,12,1.00
2006,01,31,00,13,2.00
2006,01,31,00,14,0.80
2006,01,31,00,15,0.20
2006,01,31,00,16,0.80
2006,01,31,00,17,0.30
2006,01,31,00,18,0.10
2006,01,31,00,19,0.10
2006,01,31,00,20,0.20
2006,01,31,00,21,0.90
2006,01,31,00,22,0.80
2006,01,31,00,23,2.30
2006,01,31,00,24,2.70
2006,01,31,00,25,0.70
2006,01,31,00,26,1.10
2006,01,31,00,27,0.60
2006,01,31,00,28,1.10
2006,01,31,00,29,1.80
2006,01,31,00,30,3.30
2006,01,31,00,31,3.00
2006,01,31,00,32,0.90
2006,01,31,00,33,2.20
2006,01,31,00,34,2.20
2006,01,31,00,35,2.00
2006,01,31,00,36,1.90
2006,01,31,00,37,2.50
2006,01,31,00,38,3.50
2006,01,31,00,39,4.50
2006,01,31,00,40,3.00
2006,01,31,00,41,2.60
2006,01,31,00,42,2.70
2006,01,31,00,43,4.00
2006,01,31,00,44,2.80
2006,01,31,00,45,2.30
2006,01,31,00,46,3.30
2006,01,31,00,47,2.70
2006,01,31,00,48,4.20
2006,01,31,00,49,3.10
2006,01,31,00,50,3.20
2006,01,31,00,51,3.10
2006,01,31,00,52,3.50
2006,01,31,00,53,3.50
2006,01,31,00,54,3.10
2006,01,31,00,55,3.50
2006,01,31,00,56,4.20
2006,01,31,00,57,5.10
2006,01,31,00,58,6.20
2006,01,31,00,59,6.40
2006,01,31,01,00,7.10
2006,01,31,01,01,9.10
2006,01,31,01,02,10.10
2006,01,31,01,03,7.10
2006,01,31,01,04,8.20
2006,01,31,01,05,7.80
2006,01,31,01,06,6.90
2006,01,31,01,07,6.80
2006,01,31,01,08,7.10
2006,01,31,01,09,6.90
2006,01,31,01,10,5.60
2006,01,31,01,11,6.20
2006,01,31,01,12,8.40
2006,01,31,01,13,5.80
2006,01,31,01,14,9.70
2006,01,31,01,15,11.10
2006,01,31,01,16,8.60
2006,01,31,01,17,7.20
2006,01,31,01,18,7.30
2006,01,31,01,19,12.30
2006,01,31,01,20,16.20
2006,01,31,01,21,17.10
2006,01,31,01,22,11.00
2006,01,31,01,23,9.90
2006,01,31,01,24,12.40
2006,01,31,01,25,10.60
2006,01,31,01,26,7.80
2006,01,31,01,27,9.40
2006,01,31,01,28,12.20
2006,01,31,01,29,13.20
2006,01,31,01,30,13.80
2006,01,31,01,31,9.50
2006,01,31,01,32,13.60
2006,01,31,01,33,12.60
2006,01,31,01,34,15.60
2006,01,31,01,35,12.60
2006,01,31,01,36,9.00
2006,01,31,01,37,7.70
2006,01,31,01,38,8.40
2006,01,31,01,39,8.50
2006,01,31,01,40,9.40
2006,01,31,01,41,7.20
2006,01,31,01,42,6.10
2006,01,31,01,43,9.20
2006,01,31,01,44,8.70
2006,01,31,01,45,6.80
2006,01,31,01,46,8.50
2006,01,31,01,47,6.60
2006,01,31,01,48,7.70
2006,01,31,01,49,4.50
2006,01,31,01,50,4.20
2006,01,31,01,51,5.80
2006,01,31,01,52,5.80
2006,01,31,01,53,5.20
2006,01,31,01,54,5.10
2006,01,31,01,55,3.30
2006,01,31,01,56,5.60
2006,01,31,01,57,2.60
2006,01,31,01,58,1.70
2006,01,31,01,59,3.30
2006,01,31,02,00,4.40
2006,01,31,02,01,3.80
2006,01,31,02,02,3.30
2006,01,31,02,03,1.30
2006,01,31,02,04,3.60
2006,01,31,02,05,4.70
2006,01,31,02,06,4.10
2006,01,31,02,07,2.50
2006,01,31,02,08,2.50
2006,01,31,02,09,5.50
2006,01,31,02,10,4.30
2006,01,31,02,11,4.60
2006,01,31,02,12,2.70
2006,01,31,02,13,4.70
2006,01,31,02,14,3.90
2006,01,31,02,15,4.60
2006,01,31,02,16,4.60
2006,01,31,02,17,4.50
2006,01,31,02,18,5.80
2006,01,31,02,19,2.50
2006,01,31,02,20,3.40
2006,01,31,02,21,4.50
2006,01,31,02,22,4.40
2006,01,31,02,23,3.60
2006,01,31,02,24,4.00
2006,01,31,02,25,3.60
2006,01,31,02,26,3.10
2006,01,31,02,27,2.90
2006,01,31,02,28,3.90
2006,01,31,02,29,2.60
2006,01,31,02,30,4.00
2006,01,31,02,31,2.20
2006,01,31,02,32,2.40
2006,01,31,02,33,3.00
2006,01,31,02,34,2.50
2006,01,31,02,35,3.10
2006,01,31,02,36,2.70
2006,01,31,02,37,1.50
2006,01,31,02,38,4.20
2006,01,31,02,39,3.00
2006,01,31,02,40,4.30
2006,01,31,02,41,1.70
2006,01,31,02,42,2.40
2006,01,31,02,43,3.60
2006,01,31,02,44,4.80
2006,01,31,02,45,2.30
2006,01,31,02,46,4.70
2006,01,31,02,47,4.60
2006,01,31,02,48,4.10
2006,01,31,02,49,6.10
2006,01,31,02,50,5.80
2006,01,31,02,51,6.80
2006,01,31,02,52,5.60
2006,01,31,02,53,6.40
2006,01,31,02,54,7.20
2006,01,31,02,55,5.80
2006,01,31,02,56,7.30
2006,01,31,02,57,8.20
2006,01,31,02,58,8.50
2006,01,31,02,59,7.10
2006,01,31,03,00,8.70
2006,01,31,03,01,9.90
2006,01,31,03,02,10.40
2006,01,31,03,03,14.10
2006,01,31,03,04,10.00
2006,01,31,03,05,11.70
2006,01,31,03,06,9.50
2006,01,31,03,07,10.10
2006,01,31,03,08,10.90
2006,01,31,03,09,12.00
2006,01,31,03,10,8.50
2006,01,31,03,11,6.80
2006,01,31,03,12,6.90
2006,01,31,03,13,6.20
2006,01,31,03,14,6.00
2006,01,31,03,15,4.80
2006,01,31,03,16,6.00
2006,01,31,03,17,7.70
2006,01,31,03,18,6.70
2006,01,31,03,19,9.90
2006,01,31,03,20,11.30
2006,01,31,03,21,7.60
2006,01,31,03,22,8.90
2006,01,31,03,23,9.20
2006,01,31,03,24,9.90
2006,01,31,03,25,8.30
2006,01,31,03,26,7.40
2006,01,31,03,27,6.50
2006,01,31,03,28,7.40
2006,01,31,03,29,6.10
2006,01,31,03,30,6.40
2006,01,31,03,31,5.40
2006,01,31,03,32,5.80
2006,01,31,03,33,9.00
2006,01,31,03,34,8.00
2006,01,31,03,35,6.70
2006,01,31,03,36,5.10
2006,01,31,03,37,7.00
2006,01,31,03,38,5.60
2006,01,31,03,39,4.70
2006,01,31,03,40,3.50
2006,01,31,03,41,4.10
2006,01,31,03,42,4.10
2006,01,31,03,43,4.60
2006,01,31,03,44,5.10
2006,01,31,03,45,5.80
2006,01,31,03,46,5.40
2006,01,31,03,47,4.10
2006,01,31,03,48,4.70
2006,01,31,03,49,4.80
2006,01,31,03,50,3.60
2006,01,31,03,51,6.90
2006,01,31,03,52,7.00
2006,01,31,03,53,7.60
2006,01,31,03,54,8.40
2006,01,31,03,55,8.40
2006,01,31,03,56,9.30
2006,01,31,03,57,6.40
2006,01,31,03,58,7.60
2006,01,31,03,59,6.80
2006,01,31,04,00,5.50
2006,01,31,04,01,5.80
2006,01,31,04,02,6.80
2006,01,31,04,03,5.10
2006,01,31,04,04,5.30
2006,01,31,04,05,3.40
2006,01,31,04,06,6.00
2006,01,31,04,07,5.50
2006,01,31,04,08,4.70
2006,01,31,04,09,2.60
2006,01,31,04,10,4.30
2006,01,31,04,11,3.90
2006,01,31,04,12,4.70
2006,01,31,04,13,5.20
2006,01,31,04,14,5.30
2006,01,31,04,15,5.60
2006,01,31,04,16,5.80
2006,01,31,04,17,5.40
2006,01,31,04,18,4.80
2006,01,31,04,19,5.10
2006,01,31,04,20,4.20
2006,01,31,04,21,3.60
2006,01,31,04,22,3.00
2006,01,31,04,23,2.40
2006,01,31,04,24,2.80
2006,01,31,04,25,3.00
2006,01,31,04,26,3.90
2006,01,31,04,27,3.50
2006,01,31,04,28,3.20
2006,01,31,04,29,3.80
2006,01,31,04,30,4.80
2006,01,31,04,31,4.70
2006,01,31,04,32,6.00
2006,01,31,04,33,5.20
2006,01,31,04,34,4.40
2006,01,31,04,35,5.00
2006,01,31,04,36,6.10
2006,01,31,04,37,5.80
2006,01,31,04,38,10.00
2006,01,31,04,39,9.60
2006,01,31,04,40,9.60
2006,01,31,04,41,10.60
2006,01,31,04,42,9.00
2006,01,31,04,43,6.20
2006,01,31,04,44,10.50
2006,01,31,04,45,11.80
2006,01,31,04,46,8.70
2006,01,31,04,47,8.10
2006,01,31,04,48,9.40
2006,01,31,04,49,7.30
2006,01,31,04,50,4.70
2006,01,31,04,51,6.00
2006,01,31,04,52,6.20
2006,01,31,04,53,9.80
2006,01,31,04,54,9.30
2006,01,31,04,55,11.40
2006,01,31,04,56,12.00
2006,01,31,04,57,8.50
2006,01,31,04,58,11.40
2006,01,31,04,59,8.50
2006,01,31,05,00,12.90
2006,01,31,05,01,11.30
2006,01,31,05,02,8.10
2006,01,31,05,03,9.30
2006,01,31,05,04,8.70
2006,01,31,05,05,7.20
2006,01,31,05,06,7.80
2006,01,31,05,07,9.60
2006,01,31,05,08,8.10
2006,01,31,05,09,8.10
2006,01,31,05,10,9.50
2006,01,31,05,11,8.00
2006,01,31,05,12,5.80
2006,01,31,05,13,8.60
2006,01,31,05,14,6.40
2006,01,31,05,15,6.10
2006,01,31,05,16,6.90
2006,01,31,05,17,6.00
2006,01,31,05,18,6.70
2006,01,31,05,19,6.40
2006,01,31,05,20,6.30
2006,01,31,05,21,5.70
2006,01,31,05,22,6.00
2006,01,31,05,23,6.40
2006,01,31,05,24,8.50
2006,01,31,05,25,11.20
2006,01,31,05,26,12.40
2006,01,31,05,27,9.70
2006,01,31,05,28,6.40
2006,01,31,05,29,6.00
2006,01,31,05,30,6.20
2006,01,31,05,31,5.30
2006,01,31,05,32,5.00
2006,01,31,05,33,6.40
2006,01,31,05,34,5.70
2006,01,31,05,35,7.80
2006,01,31,05,36,9.60
2006,01,31,05,37,8.50
2006,01,31,05,38,11.80
2006,01,31,05,39,9.30
2006,01,31,05,40,9.50
2006,01,31,05,41,8.80
2006,01,31,05,42,6.20
2006,01,31,05,43,5.80
2006,01,31,05,44,7.20
2006,01,31,05,45,6.30
2006,01,31,05,46,6.40
2006,01,31,05,47,7.00
2006,01,31,05,48,8.50
2006,01,31,05,49,7.80
2006,01,31,05,50,13.50
2006,01,31,05,51,8.40
2006,01,31,05,52,8.20
2006,01,31,05,53,6.00
2006,01,31,05,54,10.80
2006,01,31,05,55,9.70
2006,01,31,05,56,10.10
2006,01,31,05,57,7.10
2006,01,31,05,58,7.00
2006,01,31,05,59,6.20
2006,01,31,06,00,7.10
2006,01,31,06,01,7.60
2006,01,31,06,02,8.80
2006,01,31,06,03,8.90
2006,01,31,06,04,7.50
2006,01,31,06,05,6.80
2006,01,31,06,06,5.30
2006,01,31,06,07,7.20
2006,01,31,06,08,5.70
2006,01,31,06,09,6.20
2006,01,31,06,10,2.30
2006,01,31,06,11,1.80
2006,01,31,06,12,4.10
2006,01,31,06,13,4.70
2006,01,31,06,14,6.90
2006,01,31,06,15,6.80
2006,01,31,06,16,4.80
2006,01,31,06,17,7.60
2006,01,31,06,18,5.80
2006,01,31,06,19,6.40
2006,01,31,06,20,4.70
2006,01,31,06,21,2.40
2006,01,31,06,22,5.60
2006,01,31,06,23,3.20
2006,01,31,06,24,7.10
2006,01,31,06,25,5.00
2006,01,31,06,26,6.00
2006,01,31,06,27,4.60
2006,01,31,06,28,4.00
2006,01,31,06,29,5.10
2006,01,31,06,30,2.70
2006,01,31,06,31,3.20
2006,01,31,06,32,4.00
2006,01,31,06,33,4.50
2006,01,31,06,34,2.50
2006,01,31,06,35,4.30
2006,01,31,06,36,7.70
2006,01,31,06,37,9.00
2006,01,31,06,38,6.10
2006,01,31,06,39,7.00
2006,01,31,06,40,7.60
2006,01,31,06,41,6.70
2006,01,31,06,42,8.10
2006,01,31,06,43,7.10
2006,01,31,06,44,8.10
2006,01,31,06,45,7.50
2006,01,31,06,46,5.90
2006,01,31,06,47,7.30
2006,01,31,06,48,6.90
2006,01,31,06,49,8.10
2006,01,31,06,50,8.10
2006,01,31,06,51,8.80
2006,01,31,06,52,6.50
2006,01,31,06,53,6.70
2006,01,31,06,54,7.10
2006,01,31,06,55,6.80
2006,01,31,06,56,6.90
2006,01,31,06,57,8.10
2006,01,31,06,58,7.30
2006,01,31,06,59,7.60
2006,01,31,07,00,7.30
2006,01,31,07,01,6.60
2006,01,31,07,02,6.90
2006,01,31,07,03,7.00
2006,01,31,07,04,8.50
2006,01,31,07,05,9.50
2006,01,31,07,06,6.60
2006,01,31,07,07,6.70
2006,01,31,07,08,10.70
2006,01,31,07,09,7.90
2006,01,31,07,10,10.20
2006,01,31,07,11,8.50
2006,01,31,07,12,12.40
2006,01,31,07,13,13.40
2006,01,31,07,14,8.60
2006,01,31,07,15,11.60
2006,01,31,07,16,10.00
2006,01,31,07,17,11.30
2006,01,31,07,18,9.60
2006,01,31,07,19,8.00
2006,01,31,07,20,6.80
2006,01,31,07,21,8.20
2006,01,31,07,22,7.30
2006,01,31,07,23,9.40
2006,01,31,07,24,7.80
2006,01,31,07,25,8.70
2006,01,31,07,26,9.80
2006,01,31,07,27,9.70
2006,01,31,07,28,8.10
2006,01,31,07,29,9.20
2006,01,31,07,30,8.70
2006,01,31,07,31,9.30
2006,01,31,07,32,7.30
2006,01,31,07,33,8.80
2006,01,31,07,34,10.00
2006,01,31,07,35,8.20
2006,01,31,07,36,7.90
2006,01,31,07,37,7.20
2006,01,31,07,38,9.20
2006,01,31,07,39,12.00
2006,01,31,07,40,10.30
2006,01,31,07,41,7.30
2006,01,31,07,42,11.20
2006,01,31,07,43,16.60
2006,01,31,07,44,9.90
2006,01,31,07,45,6.40
2006,01,31,07,46,10.40
2006,01,31,07,47,8.40
2006,01,31,07,48,10.50
2006,01,31,07,49,10.50
2006,01,31,07,50,10.90
2006,01,31,07,51,9.70
2006,01,31,07,52,8.10
2006,01,31,07,53,9.50
2006,01,31,07,54,8.50
2006,01,31,07,55,12.90
2006,01,31,07,56,15.10
2006,01,31,07,57,11.50
2006,01,31,07,58,12.30
2006,01,31,07,59,9.60
2006,01,31,08,00,10.00
2006,01,31,08,01,13.00
2006,01,31,08,02,13.80
2006,01,31,08,03,16.90
2006,01,31,08,04,14.30
2006,01,31,08,05,16.00
2006,01,31,08,06,13.70
2006,01,31,08,07,13.70
2006,01,31,08,08,13.60
2006,01,31,08,09,20.40
2006,01,31,08,10,18.60
2006,01,31,08,11,18.70
2006,01,31,08,12,13.50
2006,01,31,08,13,16.30
2006,01,31,08,14,16.70
2006,01,31,08,15,20.90
2006,01,31,08,16,10.00
2006,01,31,08,17,12.90
2006,01,31,08,18,14.70
2006,01,31,08,19,14.00
2006,01,31,08,20,11.80
2006,01,31,08,21,12.10
2006,01,31,08,22,11.00
2006,01,31,08,23,18.40
2006,01,31,08,24,15.10
2006,01,31,08,25,14.20
2006,01,31,08,26,12.70
2006,01,31,08,27,14.20
2006,01,31,08,28,12.30
2006,01,31,08,29,10.10
2006,01,31,08,30,10.00
2006,01,31,08,31,8.30
2006,01,31,08,32,13.20
2006,01,31,08,33,13.40
2006,01,31,08,34,12.40
2006,01,31,08,35,15.40
2006,01,31,08,36,17.10
2006,01,31,08,37,13.60
2006,01,31,08,38,12.70
2006,01,31,08,39,12.40
2006,01,31,08,40,12.50
2006,01,31,08,41,12.80
2006,01,31,08,42,15.20
2006,01,31,08,43,14.10
2006,01,31,08,44,16.90
2006,01,31,08,45,9.40
2006,01,31,08,46,11.00
2006,01,31,08,47,12.30
2006,01,31,08,48,13.30
2006,01,31,08,49,12.10
2006,01,31,08,50,19.60
2006,01,31,08,51,13.70
2006,01,31,08,52,11.30
2006,01,31,08,53,12.30
2006,01,31,08,54,8.90
2006,01,31,08,55,10.00
2006,01,31,08,56,12.10
2006,01,31,08,57,8.30
2006,01,31,08,58,8.80
2006,01,31,08,59,11.50
2006,01,31,09,00,11.30
2006,01,31,09,01,8.00
2006,01,31,09,02,8.50
2006,01,31,09,03,12.60
2006,01,31,09,04,13.10
2006,01,31,09,05,7.60
2006,01,31,09,06,9.50
2006,01,31,09,07,15.80
2006,01,31,09,08,13.80
2006,01,31,09,09,8.50
2006,01,31,09,10,6.60
2006,01,31,09,11,12.10
2006,01,31,09,12,9.30
2006,01,31,09,13,10.30
2006,01,31,09,14,14.60
2006,01,31,09,15,14.50
2006,01,31,09,16,11.40
2006,01,31,09,17,10.50
2006,01,31,09,18,13.70
2006,01,31,09,19,15.90
2006,01,31,09,20,10.50
2006,01,31,09,21,12.10
2006,01,31,09,22,9.10
2006,01,31,09,23,9.20
2006,01,31,09,24,15.10
2006,01,31,09,25,17.90
2006,01,31,09,26,12.70
2006,01,31,09,27,11.50
2006,01,31,09,28,10.10
2006,01,31,09,29,14.90
2006,01,31,09,30,13.80
2006,01,31,09,31,9.90
2006,01,31,09,32,8.90
2006,01,31,09,33,11.00
2006,01,31,09,34,10.30
2006,01,31,09,35,12.60
2006,01,31,09,36,10.50
2006,01,31,09,37,10.10
2006,01,31,09,38,12.20
2006,01,31,09,39,8.20
2006,01,31,09,40,8.50
2006,01,31,09,41,12.00
2006,01,31,09,42,9.80
2006,01,31,09,43,12.60
2006,01,31,09,44,10.20
2006,01,31,09,45,11.70
2006,01,31,09,46,10.10
2006,01,31,09,47,13.60
2006,01,31,09,48,11.30
2006,01,31,09,49,11.90
2006,01,31,09,50,10.90
2006,01,31,09,51,12.10
2006,01,31,09,52,11.90
2006,01,31,09,53,11.70
2006,01,31,09,54,12.80
2006,01,31,09,55,16.60
2006,01,31,09,56,15.00
2006,01,31,09,57,13.80
2006,01,31,09,58,13.60
2006,01,31,09,59,16.20
2006,01,31,10,00,19.70
2006,01,31,10,01,23.30
2006,01,31,10,02,19.70
2006,01,31,10,03,14.40
2006,01,31,10,04,9.10
2006,01,31,10,05,7.60
2006,01,31,10,06,6.70
2006,01,31,10,07,12.60
2006,01,31,10,08,15.30
2006,01,31,10,09,13.50
2006,01,31,10,10,17.20
2006,01,31,10,11,19.20
2006,01,31,10,12,15.40
2006,01,31,10,13,11.20
2006,01,31,10,14,16.60
2006,01,31,10,15,15.70
2006,01,31,10,16,10.80
2006,01,31,10,17,9.00
2006,01,31,10,18,13.30
2006,01,31,10,19,11.70
2006,01,31,10,20,9.60
2006,01,31,10,21,9.50
2006,01,31,10,22,12.00
2006,01,31,10,23,11.00
2006,01,31,10,24,12.50
2006,01,31,10,25,11.50
2006,01,31,10,26,8.40
2006,01,31,10,27,13.60
2006,01,31,10,28,15.80
2006,01,31,10,29,15.00
2006,01,31,10,30,11.80
2006,01,31,10,31,6.90
2006,01,31,10,32,5.30
2006,01,31,10,33,12.10
2006,01,31,10,34,12.50
2006,01,31,10,35,16.30
2006,01,31,10,36,10.40
2006,01,31,10,37,5.70
2006,01,31,10,38,6.90
2006,01,31,10,39,12.90
2006,01,31,10,40,7.30
2006,01,31,10,41,8.70
2006,01,31,10,42,15.10
2006,01,31,10,43,13.20
2006,01,31,10,44,12.10
2006,01,31,10,45,9.30
2006,01,31,10,46,9.50
2006,01,31,10,47,7.00
2006,01,31,10,48,7.80
2006,01,31,10,49,13.40
2006,01,31,10,50,7.60
2006,01,31,10,51,8.60
2006,01,31,10,52,7.80
2006,01,31,10,53,8.90
2006,01,31,10,54,9.10
2006,01,31,10,55,8.50
2006,01,31,10,56,8.10
2006,01,31,10,57,9.50
2006,01,31,10,58,11.30
2006,01,31,10,59,8.20
2006,01,31,11,00,7.00
2006,01,31,11,01,6.50
2006,01,31,11,02,8.40
2006,01,31,11,03,13.20
2006,01,31,11,04,8.80
2006,01,31,11,05,11.90
2006,01,31,11,06,12.60
2006,01,31,11,07,16.70
2006,01,31,11,08,9.80
2006,01,31,11,09,9.30
2006,01,31,11,10,16.90
2006,01,31,11,11,11.10
2006,01,31,11,12,10.80
2006,01,31,11,13,13.50
2006,01,31,11,14,11.60
2006,01,31,11,15,13.50
2006,01,31,11,16,14.40
2006,01,31,11,17,14.90
2006,01,31,11,18,16.10
2006,01,31,11,19,15.10
2006,01,31,11,20,13.30
2006,01,31,11,21,15.30
2006,01,31,11,22,12.40
2006,01,31,11,23,11.30
2006,01,31,11,24,13.00
2006,01,31,11,25,13.00
2006,01,31,11,26,11.30
2006,01,31,11,27,16.20
2006,01,31,11,28,8.60
2006,01,31,11,29,6.70
2006,01,31,11,30,15.90
2006,01,31,11,31,17.60
2006,01,31,11,32,16.00
2006,01,31,11,33,17.30
2006,01,31,11,34,14.40
2006,01,31,11,35,18.30
2006,01,31,11,36,15.80
2006,01,31,11,37,20.20
2006,01,31,11,38,24.30
2006,01,31,11,39,20.70
2006,01,31,11,40,19.70
2006,01,31,11,41,21.60
2006,01,31,11,42,21.90
2006,01,31,11,43,20.50
2006,01,31,11,44,17.90
2006,01,31,11,45,16.50
2006,01,31,11,46,16.80
2006,01,31,11,47,15.30
2006,01,31,11,48,23.70
2006,01,31,11,49,22.90
2006,01,31,11,50,22.50
2006,01,31,11,51,20.10
2006,01,31,11,52,24.10
2006,01,31,11,53,23.30
2006,01,31,11,54,20.00
2006,01,31,11,55,20.60
2006,01,31,11,56,22.50
2006,01,31,11,57,25.10
2006,01,31,11,58,24.60
2006,01,31,11,59,19.50
2006,01,31,12,00,21.30
2006,01,31,12,01,23.70
2006,01,31,12,02,24.30
2006,01,31,12,03,19.70
2006,01,31,12,04,19.30
2006,01,31,12,05,19.70
2006,01,31,12,06,23.30
2006,01,31,12,07,24.00
2006,01,31,12,08,26.40
2006,01,31,12,09,20.30
2006,01,31,12,10,19.30
2006,01,31,12,11,25.00
2006,01,31,12,12,17.40
2006,01,31,12,13,19.30
2006,01,31,12,14,24.40
2006,01,31,12,15,27.50
2006,01,31,12,16,23.90
2006,01,31,12,17,25.00
2006,01,31,12,18,22.90
2006,01,31,12,19,23.20
2006,01,31,12,20,22.90
2006,01,31,12,21,19.20
2006,01,31,12,22,24.10
2006,01,31,12,23,18.20
2006,01,31,12,24,17.40
2006,01,31,12,25,27.50
2006,01,31,12,26,24.00
2006,01,31,12,27,15.00
2006,01,31,12,28,18.70
2006,01,31,12,29,27.60
2006,01,31,12,30,26.20
2006,01,31,12,31,18.10
2006,01,31,12,32,19.10
2006,01,31,12,33,25.00
2006,01,31,12,34,22.90
2006,01,31,12,35,23.60
2006,01,31,12,36,17.00
2006,01,31,12,37,22.50
2006,01,31,12,38,23.20
2006,01,31,12,39,19.00
2006,01,31,12,40,20.80
2006,01,31,12,41,27.70
2006,01,31,12,42,21.50
2006,01,31,12,43,18.30
2006,01,31,12,44,24.50
2006,01,31,12,45,23.60
2006,01,31,12,46,24.90
2006,01,31,12,47,20.80
2006,01,31,12,48,24.00
2006,01,31,12,49,23.40
2006,01,31,12,50,19.30
2006,01,31,12,51,25.80
2006,01,31,12,52,16.70
2006,01,31,12,53,21.90
2006,01,31,12,54,24.90
2006,01,31,12,55,20.10
2006,01,31,12,56,26.40
2006,01,31,12,57,27.60
2006,01,31,12,58,24.40
2006,01,31,12,59,24.50
2006,01,31,13,00,35.90
2006,01,31,13,01,25.50
2006,01,31,13,02,29.60
2006,01,31,13,03,30.40
2006,01,31,13,04,42.60
2006,01,31,13,05,22.00
2006,01,31,13,06,22.40
2006,01,31,13,07,29.20
2006,01,31,13,08,25.20
2006,01,31,13,09,30.90
2006,01,31,13,10,26.70
2006,01,31,13,11,33.00
2006,01,31,13,12,22.60
2006,01,31,13,13,27.30
2006,01,31,13,14,27.80
2006,01,31,13,15,32.00
2006,01,31,13,16,29.00
2006,01,31,13,17,26.30
2006,01,31,13,18,18.50
2006,01,31,13,19,26.80
2006,01,31,13,20,23.10
2006,01,31,13,21,21.20
2006,01,31,13,22,32.50
2006,01,31,13,23,32.40
2006,01,31,13,24,24.80
2006,01,31,13,25,33.50
2006,01,31,13,26,22.90
2006,01,31,13,27,27.20
2006,01,31,13,28,22.50
2006,01,31,13,29,23.00
2006,01,31,13,30,31.20
2006,01,31,13,31,24.00
2006,01,31,13,32,20.40
2006,01,31,13,33,31.10
2006,01,31,13,34,35.30
2006,01,31,13,35,27.60
2006,01,31,13,36,24.10
2006,01,31,13,37,27.80
2006,01,31,13,38,22.90
2006,01,31,13,39,34.20
2006,01,31,13,40,35.40
2006,01,31,13,41,35.50
2006,01,31,13,42,22.00
2006,01,31,13,43,20.80
2006,01,31,13,44,18.80
2006,01,31,13,45,33.70
2006,01,31,13,46,34.00
2006,01,31,13,47,28.10
2006,01,31,13,48,29.30
2006,01,31,13,49,31.90
2006,01,31,13,50,33.20
2006,01,31,13,51,31.30
2006,01,31,13,52,32.30
2006,01,31,13,53,37.40
2006,01,31,13,54,39.20
2006,01,31,13,55,33.90
2006,01,31,13,56,40.20
2006,01,31,13,57,40.20
2006,01,31,13,58,40.20
2006,01,31,13,59,36.10
2006,01,31,14,00,36.80
2006,01,31,14,01,35.00
2006,01,31,14,02,29.00
2006,01,31,14,03,31.30
2006,01,31,14,04,26.00
2006,01,31,14,05,42.10
2006,01,31,14,06,39.70
2006,01,31,14,07,28.20
2006,01,31,14,08,34.00
2006,01,31,14,09,35.70
2006,01,31,14,10,34.80
2006,01,31,14,11,36.90
2006,01,31,14,12,36.70
2006,01,31,14,13,31.40
2006,01,31,14,14,41.60
2006,01,31,14,15,32.30
2006,01,31,14,16,38.50
2006,01,31,14,17,42.30
2006,01,31,14,18,40.70
2006,01,31,14,19,36.90
2006,01,31,14,20,37.00
2006,01,31,14,21,43.00
2006,01,31,14,22,43.50
2006,01,31,14,23,41.30
2006,01,31,14,24,38.50
2006,01,31,14,25,41.00
2006,01,31,14,26,33.30
2006,01,31,14,27,47.50
2006,01,31,14,28,42.80
2006,01,31,14,29,40.30
2006,01,31,14,30,36.90
2006,01,31,14,31,36.70
2006,01,31,14,32,40.40
2006,01,31,14,33,42.90
2006,01,31,14,34,36.80
2006,01,31,14,35,34.30
2006,01,31,14,36,41.90
2006,01,31,14,37,29.40
2006,01,31,14,38,31.10
2006,01,31,14,39,34.20
2006,01,31,14,40,40.20
2006,01,31,14,41,38.00
2006,01,31,14,42,38.90
2006,01,31,14,43,29.90
2006,01,31,14,44,31.10
2006,01,31,14,45,27.90
2006,01,31,14,46,29.10
2006,01,31,14,47,31.20
2006,01,31,14,48,55.00
2006,01,31,14,49,54.60
2006,01,31,14,50,30.40
2006,01,31,14,51,37.00
2006,01,31,14,52,30.70
2006,01,31,14,53,36.70
2006,01,31,14,54,41.40
2006,01,31,14,55,39.50
2006,01,31,14,56,40.30
2006,01,31,14,57,41.80
2006,01,31,14,58,37.60
2006,01,31,14,59,31.80
2006,01,31,15,00,34.80
2006,01,31,15,01,30.20
2006,01,31,15,02,37.20
2006,01,31,15,03,32.30
2006,01,31,15,04,32.00
2006,01,31,15,05,33.80
2006,01,31,15,06,37.20
2006,01,31,15,07,34.50
2006,01,31,15,08,39.10
2006,01,31,15,09,42.60
2006,01,31,15,10,33.00
2006,01,31,15,11,36.80
2006,01,31,15,12,45.50
2006,01,31,15,13,36.20
2006,01,31,15,14,43.00
2006,01,31,15,15,47.50
2006,01,31,15,16,37.90
2006,01,31,15,17,36.00
2006,01,31,15,18,39.00
2006,01,31,15,19,38.20
2006,01,31,15,20,40.00
2006,01,31,15,21,35.00
2006,01,31,15,22,45.10
2006,01,31,15,23,35.20
2006,01,31,15,24,41.80
2006,01,31,15,25,36.90
2006,01,31,15,26,39.40
2006,01,31,15,27,34.20
2006,01,31,15,28,36.90
2006,01,31,15,29,42.20
2006,01,31,15,30,44.30
2006,01,31,15,31,34.60
2006,01,31,15,32,25.90
2006,01,31,15,33,44.00
2006,01,31,15,34,29.80
2006,01,31,15,35,42.90
2006,01,31,15,36,45.20
2006,01,31,15,37,29.40
2006,01,31,15,38,34.50
2006,01,31,15,39,36.50
2006,01,31,15,40,26.70
2006,01,31,15,41,33.10
2006,01,31,15,42,33.40
2006,01,31,15,43,23.90
2006,01,31,15,44,13.80
2006,01,31,15,45,23.00
2006,01,31,15,46,32.70
2006,01,31,15,47,34.10
2006,01,31,15,48,24.30
2006,01,31,15,49,26.00
2006,01,31,15,50,39.80
2006,01,31,15,51,46.80
2006,01,31,15,52,27.60
2006,01,31,15,53,40.00
2006,01,31,15,54,50.60
2006,01,31,15,55,32.80
2006,01,31,15,56,29.90
2006,01,31,15,57,42.80
2006,01,31,15,58,36.30
2006,01,31,15,59,26.90
2006,01,31,16,00,40.10
2006,01,31,16,01,39.00
2006,01,31,16,02,31.80
2006,01,31,16,03,36.60
2006,01,31,16,04,43.40
2006,01,31,16,05,46.40
2006,01,31,16,06,28.20
2006,01,31,16,07,38.30
2006,01,31,16,08,50.00
2006,01,31,16,09,33.20
2006,01,31,16,10,23.10
2006,01,31,16,11,44.80
2006,01,31,16,12,44.50
2006,01,31,16,13,34.90
2006,01,31,16,14,40.60
2006,01,31,16,15,44.60
2006,01,31,16,16,59.00
2006,01,31,16,17,30.70
2006,01,31,16,18,26.90
2006,01,31,16,19,34.00
2006,01,31,16,20,43.10
2006,01,31,16,21,43.50
2006,01,31,16,22,39.60
2006,01,31,16,23,40.70
2006,01,31,16,24,32.70
2006,01,31,16,25,31.20
2006,01,31,16,26,34.60
2006,01,31,16,27,37.90
2006,01,31,16,28,41.60
2006,01,31,16,29,47.00
2006,01,31,16,30,44.60
2006,01,31,16,31,44.30
2006,01,31,16,32,33.00
2006,01,31,16,33,44.90
2006,01,31,16,34,44.60
2006,01,31,16,35,31.80
2006,01,31,16,36,47.70
2006,01,31,16,37,57.90
2006,01,31,16,38,57.90
2006,01,31,16,39,58.30
2006,01,31,16,40,44.10
2006,01,31,16,41,36.90
2006,01,31,16,42,42.40
2006,01,31,16,43,32.50
2006,01,31,16,44,29.60
2006,01,31,16,45,38.90
2006,01,31,16,46,44.40
2006,01,31,16,47,43.40
2006,01,31,16,48,34.40
2006,01,31,16,49,36.90
2006,01,31,16,50,48.20
2006,01,31,16,51,42.50
2006,01,31,16,52,30.60
2006,01,31,16,53,27.40
2006,01,31,16,54,31.20
2006,01,31,16,55,31.50
2006,01,31,16,56,44.30
2006,01,31,16,57,28.30
2006,01,31,16,58,30.30
2006,01,31,16,59,35.30
2006,01,31,17,00,39.40
2006,01,31,17,01,47.10
2006,01,31,17,02,40.70
2006,01,31,17,03,37.80
2006,01,31,17,04,27.80
2006,01,31,17,05,38.50
2006,01,31,17,06,31.40
2006,01,31,17,07,35.20
2006,01,31,17,08,40.20
2006,01,31,17,09,20.90
2006,01,31,17,10,27.90
2006,01,31,17,11,33.10
2006,01,31,17,12,36.70
2006,01,31,17,13,39.60
2006,01,31,17,14,40.20
2006,01,31,17,15,29.30
2006,01,31,17,16,34.40
2006,01,31,17,17,20.90
2006,01,31,17,18,28.70
2006,01,31,17,19,44.60
2006,01,31,17,20,45.00
2006,01,31,17,21,40.60
2006,01,31,17,22,24.60
2006,01,31,17,23,39.60
2006,01,31,17,24,46.70
2006,01,31,17,25,41.30
2006,01,31,17,26,31.80
2006,01,31,18,59,26.20
2006,01,31,19,00,31.10
2006,01,31,19,01,33.90
2006,01,31,19,02,36.10
2006,01,31,19,03,29.70
2006,01,31,19,04,31.10
2006,01,31,19,05,31.50
2006,01,31,19,06,30.80
2006,01,31,19,07,36.40
2006,01,31,19,08,33.50
2006,01,31,19,09,26.20
2006,01,31,19,10,29.20
2006,01,31,19,11,35.50
2006,01,31,19,12,35.60